This demonstration page uses our WeatherBlox Daily Observations layout. Learn more.

38.89511, -77.03637

Hourly Observations for November 18, 2019

Temp ( °F °C ) Dew Point ( °F °C ) Humidity (%) Winds ( mph kmh ) Pressure ( in mb ) Visibility ( mi km ) Precip ( " mm )
12:52 am 00:52 Cloudy with Light Drizzle 41 5 37 2.8 86 86 NNE 10 17 29.97 1015 8 12.874752 0.001 0.001
1:07 am 01:07 Cloudy with Light Drizzle 41 5 37 2.8 86 86 NNE 10 17 29.97 1015 6 9.656064 0.001 0.001
1:52 am 01:52 Cloudy with Light Drizzle 41 5 37 2.8 86 86 NNE 8 13 29.94 1014 10 16.09344 0.001 0.001
2:52 am 02:52 Cloudy 41 5 37 2.8 86 86 N 10 17 29.94 1014 10 16.09344 0.001 0.001
3:52 am 03:52 Cloudy with Light Drizzle 41 5 37 2.8 86 86 N 8 13 29.91 1013 7 11.265408 0.001 0.001
4:52 am 04:52 Cloudy with Light Drizzle 40 4.4 38 3.3 93 93 NNW 7 11 29.91 1013 9 14.484096 0.001 0.001
5:43 am 05:43 Cloudy 40 4.4 36 2.2 86 86 N 8 13 29.91 1013 10 16.09344 0.001 0.001
5:52 am 05:52 Cloudy 40 4.4 36 2.2 86 86 N 8 13 29.88 1012 10 16.09344 0.001 0.001
6:27 am 06:27 Cloudy 41 5 37 2.8 86 86 N 7 11 29.91 1013 10 16.09344 0 0
6:52 am 06:52 Cloudy 41 5 36 2.2 82 82 NNE 9 15 29.88 1012 10 16.09344 0 0
7:23 am 07:23 Cloudy 41 5 36 2.2 82 82 NE 9 15 29.91 1013 10 16.09344 0 0
7:52 am 07:52 Cloudy 41 5 36 2.2 82 82 N 9 15 29.91 1013 10 16.09344 0 0
8:02 am 08:02 Cloudy 41 5 36 2.2 82 82 N 8 13 29.91 1013 10 16.09344 0 0
8:52 am 08:52 Cloudy 42 5.6 37 2.8 82 82 NNE 9 15 29.88 1012 10 16.09344 0 0
9:27 am 09:27 Cloudy with Mist and Fog 41 5 38 3.3 89 89 N 6 9 29.91 1013 4 6.437376 0 0
9:52 am 09:52 Cloudy with Light Drizzle 42 5.6 38 3.3 85 85 N 5 7 29.88 1012 6 9.656064 0.001 0.001
10:17 am 10:17 Cloudy with Light Drizzle 42 5.6 38 3.3 85 85 N 6 9 29.88 1012 4 6.437376 0.001 0.001
10:52 am 10:52 Cloudy 42 5.6 38 3.3 85 85 NNW 6 9 29.85 1011 8 12.874752 0.001 0.001
11:02 am 11:02 Cloudy 42 5.6 38 3.3 85 85 NNW 6 9 29.88 1012 9 14.484096 0 0
11:52 am 11:52 Cloudy 43 6.1 38 3.3 82 82 N 8 13 29.83 1010 10 16.09344 0 0
12:06 pm 12:06 Cloudy 43 6.1 38 3.3 82 82 NNW 6 9 29.83 1010 9 14.484096 0 0
12:52 pm 12:52 Cloudy 45 7.2 38 3.3 77 77 WNW 6 9 29.8 1009 10 16.09344 0 0
1:09 pm 13:09 Cloudy 46 7.8 39 3.9 77 77 VRB 3 6 29.8 1009 10 16.09344 0 0
1:52 pm 13:52 Cloudy 47 8.3 39 3.9 74 74 N 5 7 29.77 1008 10 16.09344 0 0
3:52 pm 15:52 Mostly Cloudy 46 7.8 39 3.9 77 77 W 8 13 29.74 1007 10 16.09344 0 0
4:13 pm 16:13 Mostly Cloudy 46 7.8 39 3.9 77 77 W 7 11 29.77 1008 10 16.09344 0 0
4:40 pm 16:40 Mostly Cloudy 45 7.2 39 3.9 80 80 W 10 17 29.77 1008 10 16.09344 0 0
4:52 pm 16:52 Mostly Cloudy 45 7.2 39 3.9 80 80 WNW 8 13 29.74 1007 10 16.09344 0 0
5:52 pm 17:52 Mostly Cloudy 45 7.2 39 3.9 80 80 WNW 6 9 29.77 1008 10 16.09344 0 0
6:52 pm 18:52 Cloudy with Light Rain 44 6.7 39 3.9 83 83 N 5 7 29.77 1008 10 16.09344 0.001 0.001
7:52 pm 19:52 Cloudy with Light Rain 44 6.7 40 4.4 85 85 N 3 6 29.74 1007 10 16.09344 0.001 0.001
8:52 pm 20:52 Cloudy with Light Rain 44 6.7 41 5 89 89 Calm 29.77 1008 6 9.656064 0.02 0.508
9:52 pm 21:52 Cloudy with Rain 44 6.7 42 5.6 93 93 SSW 3 6 29.77 1008 4 6.437376 0.08 2.032
9:57 pm 21:57 Cloudy with Light Rain 44 6.7 42 5.6 93 93 SW 3 6 29.77 1008 4 6.437376 0.01 0.254
10:52 pm 22:52 Cloudy with Rain 44 6.7 42 5.6 93 93 S 3 6 29.77 1008 4 6.437376 0.12 3.048
11:23 pm 23:23 Cloudy with Light Rain 44 6.7 42 5.6 93 93 SSW 5 7 29.77 1008 4 6.437376 0.04 1.016
11:52 pm 23:52 Cloudy with Light Rain 44 6.7 43 6.1 96 96 SSW 5 7 29.77 1008 5 8.04672 0.06 1.524

Powered by AerisWeather